map of PTP home
PTP - Airport
Location
City:  Pointe--Pitre, Guadeloupe
Name:Le Raizet
ICAO:TFFR
IATA:PTP

Details
Type:Airport (Aerodrome, Airfield)
Use:Public/Civil
Latitude:1615'51"N (16.264167)
Longitude:6131'33"W (-61.525832)
Elevation:35 ft (11 m)
Variation:14.88W (WMM2015 magnetic declination)
-0.03 annual change
Runways:1
Longest:10253 × 148 ft (3125 × 45 m), paved

Time
Time Zone:UTC-4
Local Time:

Weather
METAR:TFFR 122200Z AUTO VRB03KT 9999 BKN016 BKN024 BKN032 27/25 Q1012 TEMPO 3000 SHRA SCT013CB BKN016TCU
TAF:TFFR 120400Z 1206/1306 VRB03KT 9999 SCT020 BKN040 BKN100
TEMPO 1206/1306 3000 SHRA SCT012CB BKN018TCU
BECMG 1212/1214 10005KT PROB30
TEMPO 1206/1209 VRB15G25KT 1000 TSRA BKN010CB PROB30
TEMPO 1215/1221 VRB15G25KT 1000 TSRA BKN010CB

Related Locations
Nearby:
Farthest:BME: 12171 mi / 19587 km
Broome [Intl], WA, AU

Find:

   beyond  
but within

Other Information
Maps:
NOTAMs:
Links:
Sources:

  
  • flag of Guadeloupe
  

Sectional Chart

Flight Planning
at skyvector.com

Satellite Image

Google Maps Satellite view

 

Copyright © 2004-2018 Karl L. Swartz. All rights reserved.
The Great Circle Mapper name and logo are trademarks of the Great Circle Mapper.
All other trademarks mentioned herein belong to their respective owners.
Please see credits for attibutions and further copyright information.

  Follow gcmap on Facebook Follow gcmap on Twitter Follow gcmap on Google+ GCmap on LinkedIn

hCard Microformat

Geo Microformat